Bellingham, WA
on Friday, November 9, 2012

Friday
Previous Day Next Day
Daily Summary
 ActualAverageRecord
Temperature
Mean Temperature °F 45°F  
Max Temperature 46°F 51°F 64°F (1976)
Min Temperature 37°F 38°F 26°F (1979)
Degree Days
Heating Degree Days 24 20  
Month to date heating degree days 175  
Cooling Degree Days 0 0  
Month to date cooling degree days 0  
Year to date cooling degree days 42  
Moisture
Dew Point 22°F   
Average Humidity 48    
Maximum Humidity 60    
Minimum Humidity 36    
Precipitation
Precipitation 0.00 in 0.20 in 2.87 in (1990)
Month to date precipitation 1.73  
Year to date precipitation 27.54  
Wind
Wind Speed 10 mph   
Max Wind Speed 15 mph   
Max Gust Speed 24 mph   
Visibility 10 miles   
Events     

Key: T is trace of precipitation, MM is missing value
Source: NWS Daily Summary
Time(PST)TemperatureDew PointHumidity Pressure Visibility Wind DirectionWind SpeedGust SpeedPrecipitationEvents Conditions
12:53 AM 41.0°F 25.0°F 53% 29.87 in 10.0 miles North 10.4 mph 18.4 mph N/A   Clear
1:53 AM 39.9°F 25.0°F 55% 29.88 in 10.0 miles North 8.1 mph - N/A   Clear
2:53 AM 39.9°F 25.0°F 55% 29.88 in 10.0 miles North 10.4 mph - N/A   Clear
3:53 AM 39.0°F 25.0°F 57% 29.88 in 10.0 miles North 8.1 mph - N/A   Clear
4:53 AM 37.9°F 25.0°F 60% 29.89 in 10.0 miles North 4.6 mph - N/A   Clear
5:53 AM 37.0°F 24.1°F 59% 29.90 in 10.0 miles NNW 4.6 mph - N/A   Clear
6:53 AM 37.0°F 24.1°F 59% 29.91 in 10.0 miles North 8.1 mph - N/A   Clear
7:53 AM 39.0°F 24.1°F 55% 29.92 in 10.0 miles NNE 8.1 mph - N/A   Clear
8:53 AM 41.0°F 24.1°F 51% 29.92 in 10.0 miles North 9.2 mph 18.4 mph N/A   Clear
9:53 AM 44.1°F 24.1°F 45% 29.92 in 10.0 miles NNE 13.8 mph 23.0 mph N/A   Clear
10:53 AM 46.0°F 23.0°F 40% 29.93 in 10.0 miles North 12.7 mph 19.6 mph N/A   Clear
11:53 AM 46.0°F 23.0°F 40% 29.92 in 10.0 miles NNE 15.0 mph 24.2 mph N/A   Clear
12:53 PM 46.9°F 21.9°F 37% 29.92 in 10.0 miles North 15.0 mph 24.2 mph N/A   Clear
1:53 PM 46.9°F 21.0°F 36% 29.91 in 10.0 miles NNE 15.0 mph 19.6 mph N/A   Clear
2:53 PM 46.0°F 21.0°F 37% 29.92 in 10.0 miles NNE 6.9 mph 20.7 mph N/A   Clear
3:53 PM 43.0°F 21.0°F 42% 29.92 in 10.0 miles NNE 10.4 mph - N/A   Clear
4:53 PM 41.0°F 19.9°F 43% 29.93 in 10.0 miles NNE 11.5 mph 17.3 mph N/A   Clear
5:53 PM 39.0°F 21.0°F 49% 29.94 in 10.0 miles North 8.1 mph - N/A   Clear
6:53 PM 39.0°F 21.0°F 49% 29.95 in 10.0 miles North 13.8 mph - N/A   Clear
7:53 PM 37.9°F 21.0°F 51% 29.96 in 10.0 miles NNE 10.4 mph 20.7 mph N/A   Clear
8:53 PM 39.0°F 19.9°F 46% 29.97 in 10.0 miles North 12.7 mph - N/A   Partly Cloudy
9:53 PM 37.9°F 19.0°F 47% 29.98 in 10.0 miles North 11.5 mph 20.7 mph N/A   Clear
10:53 PM 37.0°F 19.0°F 48% 29.99 in 10.0 miles North 11.5 mph 19.6 mph N/A   Scattered Clouds
11:53 PM 37.0°F 19.0°F 48% 30.00 in 10.0 miles North 13.8 mph - N/A   Partly Cloudy
Moon Phase
Nov. 09 Nov. 13 Nov. 20 Nov. 28 Dec. 06
Sunrise:07:10 AM (PST) Moon Rise:01:52 AM (PST)11/9
Sunset:04:36 PM (PST) Moon Set:02:12 PM (PST)11/9

Copyright © 2014 The Weather Underground, Inc.